Change the Weather History Date:

Saturday, April 26, 2014

  Actual Average Record
Temperature  
Mean Temperature 62 °F 50 °F  
Max Temperature 78 °F 64 °F 84 °F (1981)
Min Temperature 46 °F 36 °F 18 °F (1924)
Degree Days  
Heating Degree Days 3 15  
Month to date heating degree days 384 472  
Since 1 July heating degree days 5642 5674  
Cooling Degree Days 0 0  
Month to date cooling degree days 0 0  
Year to date cooling degree days 0 0  
Growing Degree Days 12 (Base 50)    
Moisture  
Dew Point 23 °F    
Average Humidity 31    
Maximum Humidity 50    
Minimum Humidity 12    
Precipitation  
Precipitation T in 0.07 in 3.04 in (1972)
Month to date precipitation 0.95 1.43  
Year to date precipitation 2.91 3.13  
Snow  
Snow 0.00 in - - ()
Month to date snowfall 5.6  
Since 1 July snowfall 37.3  
Snow Depth 0.00 in    
Sea Level Pressure  
Sea Level Pressure 29.26 in    
Wind  
Wind Speed 15 mph (SSW)    
Max Wind Speed 35 mph    
Max Gust Speed 41 mph    
Visibility 10 miles    
Events      
T = Trace of Precipitation, MM = Missing Value Source: NWS Daily Summary

Daily Weather History Graph

Daily Weather History Graph

Search for Another Location

Airport or City:

Trip Planner

Search our weather history database for the weather conditions in past years. The results will help you decide how hot, cold, wet, or windy it might be!

Date:

Astronomy

Apr. 26, 2014 Rise Set
Actual Time 6:05 AM MDT 7:48 PM MDT
Civil Twilight 5:36 AM MDT 8:16 PM MDT
Nautical Twilight 5:01 AM MDT 8:51 PM MDT
Astronomical Twilight 4:24 AM MDT 9:29 PM MDT
Moon 4:30 AM MDT (4/26) 5:19 PM MDT (4/26)
Length of Visible Light 14h 40m
Length of Day
13h 42m
Waning Crescent, 8% of the Moon is Illuminated
Apr 26
Waning Crescent
Apr 29
New
May 6
First Quarter
May 14
Full
May 21
Last Quarter

Hourly Weather History & Observations

Time (MDT) Temp. Dew Point Humidity Pressure Visibility Wind Dir Wind Speed Gust Speed Precip Events Conditions
12:53 AM 54.0 °F 21.9 °F 29% 29.42 in 10.0 mi South 20.7 mph - N/A   Clear
1:53 AM 55.0 °F 19.9 °F 25% 29.40 in 10.0 mi SSW 15.0 mph - N/A   Clear
2:53 AM 57.9 °F 17.1 °F 20% 29.37 in 10.0 mi SSW 17.3 mph - N/A   Clear
3:53 AM 57.9 °F 18.0 °F 21% 29.36 in 10.0 mi SSW 16.1 mph - N/A   Partly Cloudy
4:53 AM 57.0 °F 19.0 °F 23% 29.37 in 10.0 mi South 12.7 mph - N/A   Scattered Clouds
5:53 AM 53.1 °F 21.9 °F 30% 29.39 in 10.0 mi SSW 6.9 mph - N/A   Mostly Cloudy
6:53 AM 48.9 °F 27.0 °F 43% 29.42 in 10.0 mi WNW 8.1 mph - N/A   Mostly Cloudy
7:53 AM 51.1 °F 30.0 °F 44% 29.40 in 10.0 mi Calm Calm - N/A   Mostly Cloudy
8:53 AM 55.9 °F 33.1 °F 42% 29.39 in 10.0 mi West 6.9 mph - N/A   Mostly Cloudy
9:53 AM 69.1 °F 26.1 °F 20% 29.33 in 10.0 mi South 20.7 mph - N/A   Mostly Cloudy
10:53 AM 71.1 °F 19.9 °F 14% 29.30 in 10.0 mi SSW 11.5 mph - N/A   Mostly Cloudy
11:53 AM 75.0 °F 21.9 °F 14% 29.26 in 10.0 mi SSE 10.4 mph 20.7 mph N/A   Mostly Cloudy
12:53 PM 73.9 °F 19.9 °F 13% 29.21 in 10.0 mi South 15.0 mph 26.5 mph N/A   Mostly Cloudy
1:53 PM 75.0 °F 21.0 °F 13% 29.18 in 10.0 mi SSW 23.0 mph 33.4 mph N/A   Mostly Cloudy
2:53 PM 77.0 °F 21.0 °F 12% 29.12 in 10.0 mi SSW 26.5 mph 32.2 mph N/A   Mostly Cloudy
3:53 PM 75.0 °F 19.0 °F 12% 29.10 in 10.0 mi South 23.0 mph 29.9 mph N/A   Mostly Cloudy
4:53 PM 73.0 °F 19.9 °F 14% 29.10 in 10.0 mi SSW 21.9 mph - N/A   Mostly Cloudy
5:53 PM 71.1 °F 19.0 °F 14% 29.13 in 10.0 mi South 21.9 mph 31.1 mph N/A   Mostly Cloudy
6:53 PM 68.0 °F 21.9 °F 17% 29.13 in 10.0 mi SSW 18.4 mph 28.8 mph N/A   Mostly Cloudy
7:53 PM 64.0 °F 21.0 °F 19% 29.16 in 10.0 mi WSW 12.7 mph - N/A   Mostly Cloudy
8:53 PM 62.1 °F 21.0 °F 21% 29.17 in 10.0 mi SW 18.4 mph - N/A   Mostly Cloudy
9:53 PM 57.9 °F 32.0 °F 37% 29.16 in 10.0 mi North 8.1 mph - N/A   Mostly Cloudy
10:53 PM 55.0 °F 34.0 °F 45% 29.17 in 10.0 mi North 11.5 mph - N/A   Overcast
11:53 PM 54.0 °F 35.1 °F 49% 29.15 in 10.0 mi North 16.1 mph - N/A   Overcast